www.pogodaiklimat.ru

Погода и климат >> Архив погоды >> Россия >> Ненецкий АО >> Амдерма


АРХИВ ПОГОДЫ в Амдерме

Время (UTC), дата Ветер
(напр.,м/с)
 
Видим.   Явления Облачность Т
(С)
Тd
(С)
f
(%)
Тe
(С)
Тes
(С)
Комфортность P
(гПа)
Po
(гПа)
Тmin
(С)
Tmax
(С)
R
(мм)
R24
(мм)
S
(см)
09 12.08 С 3 10 км 9/3 300 м
[Sc Ac trans]
+5.8 +3.1 83 +3 +4 1016.3 1010.0
12 12.08 С 4 10 км 9/9 300 м
[Sc]
+5.0 +1.6 79 +1 +1 1017.5 1011.2
15 12.08 С 2 10 км 9/9 300 м
[Sc]
+4.3 +2.1 86 +2 +2 1017.9 1011.6 +6.1
18 12.08 ЮЗ 3 10 км 9/8 300 м
[Sc Ac trans]
+3.7 +1.6 86 -0 -0 1018.5 1012.2
21 12.08 ЮЗ 2 10 км 5/3 300 м
[Sc Ac trans]
-0.5 -0.7 99 -4 -4 1019.0 1012.5
00 13.08 ЮЗ 3 10 км 10/10 600 м
[Sc]
+2.1 +1.5 96 -2 -2 1019.4 1013.0
03 13.08 ЮЗ 6-11
{11}
10 км 9/8 600 м
[Sc Ac trans]
+4.1 +2.6 90 -1 -1 1018.5 1012.2 -0.8
06 13.08 ЮЗ 10-14
{16}
10 км 5/3 600 м
[Sc Ac trans Ci fib]
+8.7 +4.5 75 +4 +4 1017.5 1011.3
09 13.08 ЮЗ 10-15
{17}
10 км 1/0
[Ac trans]
+12.2 +8.7 79 +9 +9 1018.2 1012.0
12 13.08 ЮЗ 8-11
{15}
10 км ясно +13.2 +9.6 79 +10 +11 1018.9 1012.8
15 13.08 ЮЗ 4
{11}
10 км 1/0
[Ac trans]
+11.7 +7.6 76 +10 +10 1019.0 1012.8 +13.4
18 13.08 Ю 5 10 км 3/0
[Ci fib]
+6.0 +5.0 93 +2 +2 1018.8 1012.5
21 13.08 ЮВ 5 10 км 3/0
[Ci fib]
+6.0 +5.0 93 +2 +2 1018.4 1012.1
00 14.08 Ю 3 10 км 5/0
[Ci fib]
+5.3 +2.5 82 +2 +2 1017.6 1011.3
03 14.08 Ю 4 10 км 8/0
[Ac trans Ci fib]
+9.7 +6.4 80 +7 +8 1016.5 1010.3 +4.1
06 14.08 Ю 5 10 км 9/0
[Ac trans Cc]
+13.3 +7.9 70 +11 +13 1014.7 1008.6
09 14.08 Ю 5 10 км слаб. ливневой дождь 9/4 600 м
[Cb cap Ac trans]
+10.5 +8.6 88 +7 +8 1013.3 1007.1
12 14.08 ЮВ 4 10 км слаб. ливневой дождь 10/10 300 м
[Cb cap]
+10.7 +10.1 96 +8 +8 1011.9 1005.8
15 14.08 ЮВ 1 4000 м слаб. ливневой дождь 10/10 300 м
[Cb cap]
+10.6 +10.6 100 +10 +10 1010.6 1004.5 +13.4 0.3
18 14.08 Ю 2 10 км {ливн. осадки} 9/8 600 м
[Sc Ac trans]
+9.8 +9.8 100 +8 +8 1010.1 1004.0
21 14.08 Ю 2 500 м туман ?/? +9.9 +9.9 100 +8 +8 1009.4 1003.3
00 15.08 Ю 3 500 м туман ?/? +9.8 +9.8 100 +7 +7 1009.3 1003.2
03 15.08 Ю 3 4000 м дымка {туман} 9/8 300 м
[Sc Ac trans]
+10.9 +10.9 100 +9 +9 1008.9 1002.8 +9.0 +9.0 0.0
06 15.08 ЮЗ 4 10 км {туман} 9/8 300 м
[Sc Ac trans]
+12.7 +11.1 90 +11 +11 1009.0 1002.9
09 15.08 С 2 10 км 9/6 300 м
[Cu Sc Ac trans Ci fib]
+10.2 +9.1 93 +9 +10 1009.7 1003.6
12 15.08 З 1 10 км 9/8 300 м
[Cu Sc Ac trans Ci fib]
+12.9 +10.6 86 +13 +13 1010.1 1004.0
15 15.08 ЮЗ 4 10 км 3/3 600 м
[Sc Ci fib]
+12.9 +10.3 84 +11 +11 1010.3 1004.2 +14.3
18 15.08 Ю 4 10 км 3/3 300 м
[Sc]
+9.1 +9.0 99 +6 +6 1011.0 1004.9
21 15.08 Ю 5 10 км местами туман поземный 1/1 300 м
[Sc]
+8.2 +8.2 100 +4 +4 1010.6 1004.4
00 16.08 Ю 5 200 м туман ?/? +9.2 +9.2 100 +6 +6 1010.6 1004.4
03 16.08 В 3 4000 м дымка {туман} 10/4 600 м
[Sc Ac und]
+10.0 +10.0 100 +8 +8 1009.0 1002.9 +6.1
06 16.08 ЮВ 5 10 км {туман} 9/8 600 м
[Sc Ac trans]
+13.0 +12.4 96 +11 +11 1007.3 1001.2
09 16.08 В 7 10 км 9/3 300 м
[Sc Ac trans]
+10.7 +10.1 96 +7 +8 1005.2 999.1
12 16.08 В 6
{10}
4000 м ливневой дождь 10/10 300 м
[Cb cap]
+9.6 +9.6 100 +6 +6 1003.0 996.9
15 16.08 В 8-11
{12}
2000 м ливневой дождь 10/10 300 м
[Cb cap]
+8.2 +8.2 100 +3 +3 1000.0 993.9 +14.7 7
18 16.08 Ю 6
{11}
10 км {ливн. осадки} 8/3 600 м
[Sc Ac trans]
+12.1 +12.0 99 +9 +9 999.8 993.8
21 16.08 С 2 10 км 9/5 600 м
[Sc Ac trans]
+10.4 +10.4 100 +9 +9 999.9 993.8
00 17.08 В 1 10 км {ливн. осадки} 9/3 300 м
[Sc Ac trans]
+11.0 +11.0 100 +11 +11 1000.6 994.5
03 17.08 З 4 500 м туман ?/? +8.5 +8.5 100 +5 +5 1002.1 996.0 +8.2 2
06 17.08 СЗ 6-10
{10}
500 м туман {ливн. осадки} ?/? +6.9 +6.9 100 +2 +2 1004.9 998.7 +6.9
09 17.08 СЗ 7-13
{13}
4000 м слаб. морось {туман} 10/10 200 м
[St]
+6.6 +6.6 100 +1 +1 1008.5 1002.3
12 17.08 СЗ 6-12
{14}
4000 м дымка {туман} 10/10 200 м
[St]
+6.3 +6.3 100 +1 +1 1011.6 1005.4
15 17.08 СЗ 5-11
{12}
10 км 9/9 300 м
[Sc]
+6.3 +6.1 99 +2 +2 1013.9 1007.7 +8.5 0.4
18 17.08 З 5
{11}
10 км 9/8 600 м
[Sc Ac trans]
+7.4 +5.2 86 +3 +3 1015.9 1009.6
21 17.08 ЮЗ 4 10 км 8/0
[Ac trans Ci fib]
+4.4 +3.5 94 -0 -0 1017.2 1010.9
00 18.08 ЮЗ 4 4000 м дымка 8/0
[Ac trans Ci fib]
+3.7 +3.7 100 -1 -1 1019.0 1012.6
03 18.08 ЮЗ 3 10 км 10/10 300 м
[Sc]
+7.2 +7.2 100 +4 +4 1020.2 1014.0 +3.4
06 18.08 З 4 10 км 10/10 300 м
[Sc]
+7.2 +7.2 100 +3 +3 1021.1 1014.9
09 18.08 ЮЗ 6
{10}
10 км 10/10 300 м
[Sc]
+8.0 +7.3 95 +4 +4 1022.3 1016.0
12 18.08 З 5
{10}
10 км 10/10 300 м
[Sc]
+10.1 +8.7 91 +7 +7 1023.2 1016.9
15 18.08 ЮЗ 4 10 км 9/8 300 м
[Sc Ci fib]
+10.3 +9.0 92 +8 +8 1023.6 1017.4 +10.3
18 18.08 Ю 6 10 км 3/0
[Ac trans Ci fib]
+8.6 +7.9 95 +4 +4 1024.0 1017.7
21 18.08 Ю 7-10
{12}
10 км 8/8 300 м
[]
+9.1 +8.5 96 +5 +5 1024.3 1018.0
00 19.08 Ю 7-10
{11}
10 км 9/3 300 м
[Sc Ac trans Ci fib]
+10.1 +9.5 96 +6 +6 1025.0 1018.8
03 19.08 ЮЗ 8-10
{11}
10 км 9/4 600 м
[Sc Ac trans]
+11.5 +10.7 95 +8 +8 1025.4 1019.2 +8.1
06 19.08 ЮЗ 6-10
{12}
10 км 6/0
[Ac trans Ci fib]
+15.0 +12.3 84 +13 +15 1026.2 1020.1

 

Местоположение метеостанции Амдерма (Ненецкий АО, Россия): широта 69.77 долгота 61.68 высота над уровнем моря 48 м.

В архиве по умолчанию представлена погода в Амдерме за последнюю неделю. Архивные данные за месяц целиком и за предыдущие месяцы, начиная с января 2011 года, Вы можете получить, выбрав интересующий диапазон дат из раскрывающегося списка и нажав кнопку "Ввод!".


*Определитесь, кто Вы:
робот инопланетянин человек

Внимание! Время в таблицах - всемирное. Для получения местного времени необходимо прибавить поправку, которая равна 3 ч.

Смотрите также архив погоды в соседних городах и на ближайших метеорологических станциях:

Погода на Мысе Белый Нос (Ненецкий АО, Россия) (60 км)
Погода в Имени Федорова (Ненецкий АО, Россия) (124 км)
Погода в Усть-Каре (Ненецкий АО, Россия) (139 км)
Погода в Варандее (Ненецкий АО, Россия) (179 км)
Погода в Марресале (Ямало-Ненецкий АО, Россия) (197 км)
Погода в Воркуте (Коми, Россия) (271 км)
Погода на Мысе Константиновском (Ненецкий АО, Россия) (279 км)
Погода в Хорей-Вере (Ненецкий АО, Россия) (300 км)
Погода в Елецкой (Коми, Россия) (318 км)
Погода в Ходоварихе (Ненецкий АО, Россия) (325 км)

Пояснения к столбцам:

Ветер - указаны скорость ветра в м/с - средняя за 10 мин, порывы в срок и между сроками (в фигурных скобках) и направление, откуда дует ветер: С - северный, СВ - северо-восточный, В - восточный, ЮВ - юго-восточный, Ю - южный, ЮЗ - юго-западный, З - западный, СЗ - северо-западный.
Видимость - горизонтальная дальность видимости в метрах или километрах. При видимости от 1 до 10 км при отсутствии осадков обычно наблюдается дымка, при ухудшении видимости до 1 км и менее - туман. В сухую погоду видимость может ухудшаться дымом, пылью или мглою.
Явления - указаны атмосферные явления, наблюдавшиеся в срок или в последний час перед сроком; фигурными скобками обозначены явления, наблюдавшиеся между сроками (за 1-3 часа до срока); квадратными скобками обозначены град или гололедные отложения с указанием их диаметра в мм.
Облачность - указаны через наклонную черту общая и нижняя облачность в баллах и высота нижней границы облаков в метрах; квадратными скобками обозначены формы облаков: Ci - перистые, Cs - перисто-слоистые, Cc - перисто-кучевые, Ac - высококучевые, As - высокослоистые, Sc - слоисто-кучевые, Ns - слоисто-дождевые, Cu - кучевые, Cb - кучево-дождевые. Подробнее классификацию облаков см. в Атласе облаков (PDF).
T - Температура воздуха - температура, измеренная на высоте 2 м над землей.
Td - Температура точки росы - температура, при понижении до которой содержащийся в воздухе водяной пар достигнет насыщения.
f - Относительная влажность воздуха - влажноcть воздуха, измеренная на высоте 2 м над землей.
Te - Эффективная температура - температура, которую ощущает одетый по сезону человек в тени. Характеристика душности погоды. При расчете учитывается влияние влажности воздуха и скорости ветра на теплоощущения человека.
Tes - Эффективная температура на солнце - температура, которую ощущает человек, с поправкой на солнечный нагрев. Характеристика знойности погоды. Зависит от высоты солнца над горизонтом, облачности и скорости ветра. Ночью, в пасмурную погоду, а также при ветре 12 м/с и более поправка равна нулю.
P - Атмосферное давление - приведенное к уровню моря атмосферное давление.
Po - Атмосферное давление - измеренное на уровне метеостанции атмосферное давление.
Tmin - Минимальная температура - минимум температуры воздуха на высоте 2 м над землей.
Tmax - Максимальная температура - максимум температуры воздуха на высоте 2 м над землей.
R - Количество осадков - Количество выпавших осадков за период времени, мм. При наведении курсора мыши на число - период времени, за который выпало указанное количество осадков.
R24 - Количество осадков - Количество выпавших осадков за 24 часа, мм.
S - Снежный покров - Высота снежного покрова, см. При наведении курсора мыши на число - состояние снежного покрова и степень покрытия местности в баллах.